Track CARTOSAT 2B now! 10-day predictions CARTOSAT 2B is classified as:
1 36795U 10035A 25186.88321975 .00000535 00000-0 79718-4 0 9993 2 36795 97.8075 240.8533 0010675 230.2762 129.7510 14.78734845808758